AFR26 KMCO-LFPG

Flight info

Callsign AFR26
Flight time N/A
Altitude 37000
Route FATHE4 VIYAP Q87 JROSS Q135 RREGG DCT EARZZ/N0478F390 Q131 KALDA Q167 TOPRR DCT VALCO DCT KYSKY Q430 FLAPE DCT KURLY DCT KANNI N97B SUPRY/M085F390 DCT 4650N DCT 4840N DCT 4830N DCT 4820N DCT 4815N DCT UMLER UN734 UMOXA/N0479F390 DCT ADSET/N0480F400 UT512 ANG/N0504F300 UN741 KEPER
Aircraft A359/H-SDE2E3GHIJ3J4J5LM1ORWXY/LB1D1

Departure

Time 2026-04-25 14:35
Airport Orlando International Airport (KMCO)

Arrival

Time N/A
Airport Charles de Gaulle International Airport (LFPG)
Time Latitude Longitude Altitude Speed Heading
2026-04-25 14:05 28.41238 -81.31707 101 ft 0 kts 180°
2026-04-25 14:12 28.41257 -81.31707 102 ft 4 kts 180°
2026-04-25 14:12 28.41284 -81.31707 99 ft 4 kts 180°
2026-04-25 14:12 28.41306 -81.31707 99 ft 4 kts 191°
2026-04-25 14:13 28.41327 -81.31695 99 ft 4 kts 245°
2026-04-25 14:13 28.41330 -81.31669 99 ft 4 kts 270°
2026-04-25 14:13 28.41330 -81.31646 99 ft 0 kts 270°
2026-04-25 14:15 28.41330 -81.31651 100 ft 4 kts 270°
2026-04-25 14:15 28.41330 -81.31711 99 ft 12 kts 270°
2026-04-25 14:16 28.41330 -81.31799 103 ft 8 kts 270°
2026-04-25 14:16 28.41330 -81.31806 103 ft 0 kts 270°
2026-04-25 14:16 28.41346 -81.31896 105 ft 17 kts 313°
2026-04-25 14:16 28.41480 -81.31912 105 ft 23 kts
2026-04-25 14:17 28.41582 -81.31974 104 ft 19 kts 341°
2026-04-25 14:17 28.41734 -81.31981 105 ft 25 kts 360°
2026-04-25 14:17 28.41925 -81.31985 104 ft 29 kts 359°
2026-04-25 14:17 28.42119 -81.31986 104 ft 27 kts 360°
2026-04-25 14:18 28.42283 -81.31988 105 ft 16 kts 360°
2026-04-25 14:18 28.42344 -81.31922 105 ft 14 kts 83°
2026-04-25 14:18 28.42347 -81.31787 106 ft 19 kts 89°
2026-04-25 14:18 28.42348 -81.31633 104 ft 20 kts 89°
2026-04-25 14:19 28.42350 -81.31471 102 ft 21 kts 89°
2026-04-25 14:19 28.42350 -81.31299 101 ft 22 kts 92°
2026-04-25 14:19 28.42336 -81.31145 101 ft 17 kts 101°
2026-04-25 14:19 28.42319 -81.31028 101 ft 14 kts 95°
2026-04-25 14:20 28.42319 -81.30929 100 ft 12 kts 87°
2026-04-25 14:20 28.42320 -81.30900 102 ft 10 kts 86°
2026-04-25 14:20 28.42321 -81.30882 100 ft 3 kts 86°
2026-04-25 14:20 28.42327 -81.30799 102 ft 14 kts 85°
2026-04-25 14:21 28.42333 -81.30708 105 ft 12 kts 86°
2026-04-25 14:21 28.42340 -81.30598 102 ft 18 kts 86°
2026-04-25 14:21 28.42350 -81.30474 100 ft 6 kts 85°
2026-04-25 14:21 28.42351 -81.30465 101 ft 5 kts 85°
2026-04-25 14:22 28.42356 -81.30377 100 ft 13 kts 88°
2026-04-25 14:22 28.42358 -81.30294 104 ft 11 kts 88°
2026-04-25 14:22 28.42360 -81.30239 105 ft 0 kts 88°
2026-04-25 14:23 28.42360 -81.30237 105 ft 1 kts 88°
2026-04-25 14:23 28.42360 -81.30221 103 ft 3 kts 88°
2026-04-25 14:23 28.42362 -81.30157 101 ft 14 kts 88°
2026-04-25 14:23 28.42362 -81.30018 101 ft 21 kts 90°
2026-04-25 14:24 28.42363 -81.29858 101 ft 19 kts 83°
2026-04-25 14:24 28.42452 -81.29796 102 ft 16 kts
2026-04-25 14:24 28.42567 -81.29795 102 ft 16 kts 359°
2026-04-25 14:24 28.42680 -81.29797 105 ft 13 kts 360°
2026-04-25 14:25 28.42780 -81.29798 102 ft 16 kts 359°
2026-04-25 14:25 28.42886 -81.29799 102 ft 15 kts 360°
2026-04-25 14:25 28.42987 -81.29801 103 ft 14 kts 359°
2026-04-25 14:25 28.43048 -81.29801 102 ft 13 kts 359°
2026-04-25 14:26 28.43104 -81.29802 102 ft 0 kts 359°
2026-04-25 14:26 28.43113 -81.29802 104 ft 4 kts 359°
2026-04-25 14:27 28.43185 -81.29803 102 ft 11 kts 360°
2026-04-25 14:27 28.43196 -81.29803 103 ft 1 kts 359°
2026-04-25 14:27 28.43213 -81.29803 102 ft 0 kts 359°
2026-04-25 14:28 28.43214 -81.29803 102 ft 1 kts 359°
2026-04-25 14:28 28.43251 -81.29803 101 ft 7 kts 359°
2026-04-25 14:28 28.43265 -81.29803 102 ft 0 kts 359°
2026-04-25 14:29 28.43276 -81.29803 102 ft 9 kts 359°
2026-04-25 14:29 28.43380 -81.29804 103 ft 19 kts 360°
2026-04-25 14:29 28.43490 -81.29807 102 ft 12 kts 358°
2026-04-25 14:30 28.43520 -81.29801 103 ft 0 kts 18°
2026-04-25 14:31 28.43523 -81.29799 104 ft 3 kts 20°
2026-04-25 14:31 28.43550 -81.29734 104 ft 9 kts 88°
2026-04-25 14:32 28.43550 -81.29720 104 ft 0 kts 90°
2026-04-25 14:32 28.43550 -81.29716 104 ft 4 kts 90°
2026-04-25 14:33 28.43544 -81.29619 104 ft 13 kts 115°
2026-04-25 14:33 28.43472 -81.29586 105 ft 0 kts 179°
2026-04-25 14:34 28.43471 -81.29586 105 ft 3 kts 179°
2026-04-25 14:34 28.43236 -81.29583 107 ft 65 kts 179°
2026-04-25 14:34 28.42586 -81.29576 102 ft 121 kts 179°
2026-04-25 14:34 28.41584 -81.29563 172 ft 160 kts 179°
2026-04-25 14:35 28.40510 -81.29535 879 ft 150 kts 176°
2026-04-25 14:35 28.39458 -81.29391 1420 ft 157 kts 170°
2026-04-25 14:35 28.38385 -81.29052 1823 ft 166 kts 162°
2026-04-25 14:35 28.37276 -81.28491 2079 ft 185 kts 152°
2026-04-25 14:36 28.36138 -81.27679 2434 ft 201 kts 148°
2026-04-25 14:36 28.34952 -81.26735 2785 ft 217 kts 142°
2026-04-25 14:36 28.33798 -81.25519 3141 ft 236 kts 134°
2026-04-25 14:36 28.32704 -81.24048 3515 ft 251 kts 123°
2026-04-25 14:37 28.32013 -81.22182 3929 ft 265 kts 102°
2026-04-25 14:37 28.31969 -81.20061 4424 ft 276 kts 80°
2026-04-25 14:37 28.32603 -81.18010 4930 ft 285 kts 60°
2026-04-25 14:37 28.33883 -81.16245 5560 ft 289 kts 40°
2026-04-25 14:38 28.35586 -81.15103 6322 ft 289 kts 20°
2026-04-25 14:38 28.37585 -81.14651 7065 ft 291 kts
2026-04-25 14:38 28.39598 -81.14884 7835 ft 292 kts 347°
2026-04-25 14:38 28.41588 -81.15374 8647 ft 293 kts 346°
2026-04-25 14:39 28.43544 -81.15920 9469 ft 293 kts 344°
2026-04-25 14:39 28.45547 -81.16521 10221 ft 297 kts 344°
2026-04-25 14:39 28.47572 -81.17126 10797 ft 304 kts 344°
2026-04-25 14:39 28.49648 -81.17746 11245 ft 317 kts 344°
2026-04-25 14:40 28.51845 -81.18393 11583 ft 332 kts 344°
2026-04-25 14:40 28.54120 -81.19065 11931 ft 346 kts 344°
2026-04-25 14:40 28.56498 -81.19768 12244 ft 359 kts 344°
2026-04-25 14:40 28.58934 -81.20521 12706 ft 366 kts 343°
2026-04-25 14:41 28.61401 -81.21309 13275 ft 370 kts 343°
2026-04-25 14:41 28.63889 -81.22119 13849 ft 373 kts 342°
2026-04-25 14:41 28.66391 -81.22943 14324 ft 377 kts 342°
2026-04-25 14:41 28.68926 -81.23783 14830 ft 380 kts 342°
2026-04-25 14:42 28.71472 -81.24629 15337 ft 383 kts 342°
2026-04-25 14:42 28.73175 -81.25196 15653 ft 386 kts 342°
2026-04-25 14:42 28.76632 -81.26349 15964 ft 388 kts 342°
2026-04-25 14:42 28.79222 -81.27214 15984 ft 389 kts 342°
2026-04-25 14:43 28.81827 -81.28085 16185 ft 392 kts 342°
2026-04-25 14:43 28.84495 -81.28806 16759 ft 394 kts 350°
2026-04-25 14:43 28.87235 -81.29135 17304 ft 398 kts 353°
2026-04-25 14:43 28.89975 -81.29366 17797 ft 403 kts 354°
2026-04-25 14:44 28.92781 -81.29596 18297 ft 407 kts 353°
2026-04-25 14:44 28.95618 -81.29832 18769 ft 410 kts 353°
2026-04-25 14:44 28.98466 -81.30071 19311 ft 411 kts 354°
2026-04-25 14:44 29.01326 -81.30336 19836 ft 413 kts 353°
2026-04-25 14:45 29.04195 -81.30659 20339 ft 415 kts 352°
2026-04-25 14:45 29.07077 -81.30992 20847 ft 418 kts 352°
2026-04-25 14:45 29.09976 -81.31322 21349 ft 420 kts 353°
2026-04-25 14:45 29.12897 -81.31619 21823 ft 423 kts 355°
2026-04-25 14:46 29.15851 -81.31787 22356 ft 426 kts 356°
2026-04-25 14:46 29.18817 -81.31937 22876 ft 428 kts 356°
2026-04-25 14:46 29.21801 -81.32098 23408 ft 431 kts 355°
2026-04-25 14:46 29.24809 -81.32268 23842 ft 434 kts 355°
2026-04-25 14:47 29.27837 -81.32444 24232 ft 438 kts 356°
2026-04-25 14:47 29.29861 -81.32563 24497 ft 440 kts 356°
2026-04-25 14:47 29.33966 -81.32808 25077 ft 443 kts 356°
2026-04-25 14:47 29.37053 -81.32993 25505 ft 446 kts 356°
2026-04-25 14:48 29.40159 -81.33179 25904 ft 449 kts 356°
2026-04-25 14:48 29.43286 -81.33367 26330 ft 451 kts 356°
2026-04-25 14:48 29.46432 -81.33556 26739 ft 454 kts 356°
2026-04-25 14:48 29.49598 -81.33747 27150 ft 457 kts 356°
2026-04-25 14:49 29.52782 -81.33940 27539 ft 459 kts 356°
2026-04-25 14:49 29.55985 -81.34133 27944 ft 462 kts 356°
2026-04-25 14:49 29.59203 -81.34328 28311 ft 465 kts 357°
2026-04-25 14:49 29.62444 -81.34524 28699 ft 467 kts 357°
2026-04-25 14:50 29.65704 -81.34723 29075 ft 470 kts 357°
2026-04-25 14:50 29.68973 -81.34912 29415 ft 472 kts 357°
2026-04-25 14:50 29.72270 -81.35097 29769 ft 475 kts 357°
2026-04-25 14:50 29.75577 -81.35283 30091 ft 477 kts 357°
2026-04-25 14:51 29.78897 -81.35472 30355 ft 480 kts 357°
2026-04-25 14:51 29.82243 -81.35663 30608 ft 482 kts 357°
2026-04-25 14:51 29.85598 -81.35856 30892 ft 483 kts 357°
2026-04-25 14:51 29.88910 -81.36046 31283 ft 482 kts 357°
2026-04-25 14:52 29.92295 -81.36240 31666 ft 481 kts 357°
2026-04-25 14:52 29.95595 -81.36430 32021 ft 481 kts 357°
2026-04-25 14:52 29.98935 -81.36622 32359 ft 480 kts 357°
2026-04-25 14:52 30.01186 -81.36751 32589 ft 480 kts 356°
2026-04-25 14:53 30.05599 -81.37006 33027 ft 479 kts 356°
2026-04-25 14:53 30.08931 -81.37198 33344 ft 479 kts 356°
2026-04-25 14:53 30.12301 -81.37392 33671 ft 478 kts 356°
2026-04-25 14:53 30.15615 -81.37583 34090 ft 475 kts 356°
2026-04-25 14:54 30.18910 -81.37774 34411 ft 473 kts 356°
2026-04-25 14:54 30.22148 -81.37961 34681 ft 473 kts 356°
2026-04-25 14:54 30.25434 -81.38151 34966 ft 472 kts 356°
2026-04-25 14:54 30.28697 -81.38340 35236 ft 471 kts 356°
2026-04-25 14:55 30.31973 -81.38530 35502 ft 470 kts 356°
2026-04-25 14:55 30.35273 -81.38722 35754 ft 469 kts 356°
2026-04-25 14:55 30.38486 -81.38908 35999 ft 468 kts 356°
2026-04-25 14:55 30.41731 -81.39097 36225 ft 467 kts 356°
2026-04-25 14:56 30.44975 -81.39286 36453 ft 466 kts 356°
2026-04-25 14:56 30.48212 -81.39476 36680 ft 466 kts 356°
2026-04-25 14:56 30.51448 -81.39647 36890 ft 465 kts 356°
2026-04-25 14:56 30.54687 -81.39812 36979 ft 468 kts 356°
2026-04-25 14:57 30.61206 -81.40151 36982 ft 469 kts 356°
2026-04-25 14:57 30.67715 -81.40494 36991 ft 468 kts 356°
2026-04-25 14:58 30.74224 -81.40838 36979 ft 468 kts 356°
2026-04-25 14:58 30.80734 -81.41184 36974 ft 468 kts 356°
2026-04-25 14:59 30.87249 -81.41530 36963 ft 468 kts 356°
2026-04-25 14:59 30.93761 -81.41877 36954 ft 468 kts 356°
2026-04-25 15:00 31.00274 -81.42224 36953 ft 469 kts 356°
2026-04-25 15:00 31.06793 -81.42573 36941 ft 469 kts 356°
2026-04-25 15:01 31.13308 -81.42921 36961 ft 469 kts 356°
2026-04-25 15:01 31.19826 -81.43265 36941 ft 469 kts 356°
2026-04-25 15:02 31.26314 -81.42526 36972 ft 472 kts 13°
2026-04-25 15:02 31.32470 -81.39754 36964 ft 476 kts 22°
2026-04-25 15:03 31.38483 -81.36488 36952 ft 477 kts 23°
2026-04-25 15:03 31.44484 -81.33164 37045 ft 477 kts 23°
2026-04-25 15:04 31.49478 -81.30422 37173 ft 477 kts 23°
2026-04-25 15:04 31.55489 -81.27144 37356 ft 476 kts 23°
2026-04-25 15:05 31.61464 -81.23889 37499 ft 472 kts 23°
2026-04-25 15:06 31.70392 -81.19023 37727 ft 471 kts 23°
2026-04-25 15:06 31.76331 -81.15777 37880 ft 471 kts 23°
2026-04-25 15:07 31.82258 -81.12527 38046 ft 470 kts 23°
2026-04-25 15:07 31.88184 -81.09275 38208 ft 470 kts 23°
2026-04-25 15:08 31.94106 -81.06022 38376 ft 469 kts 23°
2026-04-25 15:08 32.00016 -81.02773 38540 ft 468 kts 23°
2026-04-25 15:09 32.05915 -80.99498 38688 ft 469 kts 23°
2026-04-25 15:09 32.14725 -80.94551 38899 ft 471 kts 23°
2026-04-25 15:10 32.20647 -80.91226 38952 ft 471 kts 23°
2026-04-25 15:11 32.29483 -80.86260 38954 ft 468 kts 23°
2026-04-25 15:11 32.35365 -80.82951 38940 ft 469 kts 23°
2026-04-25 15:12 32.44206 -80.77968 38941 ft 469 kts 23°
2026-04-25 15:12 32.49142 -80.75180 38944 ft 469 kts 23°
2026-04-25 15:13 32.58939 -80.69638 38942 ft 470 kts 23°
2026-04-25 15:14 32.64844 -80.66291 38939 ft 470 kts 23°
2026-04-25 15:14 32.70558 -80.62477 38942 ft 474 kts 34°
2026-04-25 15:15 32.75374 -80.57048 38927 ft 482 kts 45°
2026-04-25 15:15 32.79848 -80.51068 38936 ft 486 kts 46°
2026-04-25 15:16 32.84290 -80.44968 38928 ft 489 kts 47°
2026-04-25 15:16 32.91012 -80.35780 38932 ft 492 kts 46°
2026-04-25 15:17 32.97767 -80.26579 38939 ft 492 kts 46°
2026-04-25 15:18 33.02267 -80.20446 38933 ft 492 kts 46°
2026-04-25 15:18 33.09011 -80.11224 38945 ft 492 kts 46°
2026-04-25 15:19 33.12750 -80.06108 38946 ft 492 kts 46°
2026-04-25 15:19 33.18002 -79.98903 38947 ft 492 kts 47°
2026-04-25 15:20 33.22497 -79.92722 38942 ft 493 kts 47°
2026-04-25 15:20 33.26985 -79.86541 38951 ft 492 kts 47°
2026-04-25 15:21 33.31475 -79.80348 38926 ft 494 kts 47°
2026-04-25 15:21 33.35971 -79.74135 38919 ft 494 kts 47°
2026-04-25 15:22 33.40460 -79.67924 38943 ft 493 kts 47°
2026-04-25 15:22 33.44944 -79.61705 38929 ft 493 kts 47°
2026-04-25 15:23 33.49422 -79.55483 38927 ft 493 kts 47°
2026-04-25 15:23 33.52387 -79.51358 38932 ft 494 kts 47°
2026-04-25 15:24 33.58400 -79.42981 38928 ft 496 kts 47°
2026-04-25 15:24 33.62137 -79.37765 38930 ft 495 kts 47°
2026-04-25 15:25 33.67336 -79.30494 38930 ft 493 kts 47°
2026-04-25 15:25 33.71835 -79.24208 38936 ft 493 kts 47°
2026-04-25 15:26 33.76276 -79.17981 38944 ft 495 kts 47°
2026-04-25 15:26 33.80762 -79.11681 38944 ft 497 kts 47°
2026-04-25 15:27 33.85257 -79.05358 38947 ft 498 kts 47°
2026-04-25 15:28 33.91983 -78.95876 38940 ft 496 kts 47°
2026-04-25 15:28 33.96458 -78.89556 38931 ft 495 kts 47°
2026-04-25 15:29 34.00929 -78.83230 38930 ft 497 kts 47°
2026-04-25 15:29 34.05416 -78.76871 38921 ft 498 kts 47°
2026-04-25 15:30 34.09907 -78.70493 38943 ft 498 kts 47°
2026-04-25 15:30 34.14385 -78.64124 38946 ft 497 kts 47°
2026-04-25 15:31 34.18849 -78.57759 38944 ft 496 kts 47°
2026-04-25 15:31 34.23317 -78.51381 38941 ft 498 kts 47°
2026-04-25 15:32 34.28224 -78.45511 38935 ft 497 kts 39°
2026-04-25 15:32 34.33376 -78.39947 38929 ft 496 kts 39°
2026-04-25 15:33 34.41152 -78.31675 38908 ft 496 kts 39°
2026-04-25 15:33 34.46335 -78.26135 38915 ft 497 kts 38°
2026-04-25 15:34 34.51522 -78.20570 38918 ft 499 kts 39°
2026-04-25 15:34 34.54996 -78.16835 38923 ft 499 kts 39°
2026-04-25 15:35 34.64494 -78.06601 38933 ft 499 kts 39°
2026-04-25 15:36 34.71445 -77.99091 38944 ft 501 kts 38°